Regional Weather Roundup
Issued by NWS

Home | Current Version | Previous Version | Text Only | Print | Product List | Glossary Off
Versions: 1 2 3 4 5 6 7 8 9 10 11 12 13 14 15 16 17 18 19 20 21 22 23 24 25 26 27 28 29 30 31 32 33 34 35 36 37 38 39 40 41 42 43 44 45 46 47 48 49 50

000
ASUS43 KTOP 251859
RWRKS

WEATHER ROUNDUP FOR KANSAS
NATIONAL WEATHER SERVICE GOODLAND KS
200 PM CDT TUE APR 25 2017

NOTE:  "FAIR" INDICATES FEW OR NO CLOUDS BELOW 12,000 FEET WITH NO
SIGNIFICANT WEATHER AND/OR OBSTRUCTIONS TO VISIBILITY.

KSZ001>006-013>018-027>032-041>047-252000-
NORTHWEST KANSAS

CITY           SKY/WX    TMP DP  RH WIND       PRES   REMARKS
GOODLAND       CLOUDY    58  42  55 VRB7      29.55S
HAYS           CLOUDY    54  45  71 N18       29.50F
HILL CITY      CLOUDY    58  44  60 NE16      29.53S
RUSSELL        CLOUDY    54  44  69 N17       29.49S
$$

KSZ061>065-074>080-084>089-252000-
SOUTHWEST KANSAS

CITY           SKY/WX    TMP DP  RH WIND       PRES   REMARKS
DODGE CITY     CLOUDY    56  46  69 N17       29.51R
ELKHART          N/A     55  43  64 N6          N/A
GARDEN CITY    CLOUDY    57  45  64 N15       29.53R
GREAT BEND     CLOUDY    55  47  74 N16       29.48S
$$

KSZ066>073-081>083-090>101-252000-
SOUTHEAST KANSAS

CITY           SKY/WX    TMP DP  RH WIND       PRES   REMARKS
CHANUTE        CLOUDY    73  57  57 S12       29.41S
COFFEYVILLE    MOSUNNY   77  60  55 S20G25    29.40F
HUTCHINSON     CLOUDY    65  53  65 NW14      29.42R
MEDICINE LODGE   N/A     66  53  63 N12       29.43R
NEWTON         CLOUDY    67  56  67 N14       29.42R
PARSONS        PTSUNNY   74  58  57 S12       29.42S
WICHITA INTL   CLOUDY    73  57  57 N10       29.39S
WICHITA JABRA  CLOUDY    73  57  57 VRB5      29.39S
WICHITA MCCONL CLOUDY    73  56  54 W5        29.38F
WINFIELD       MOSUNNY   79  60  52 SW8       29.38F
$$

KSZ007>012-019>026-033>040-048>060-102>105-252000-
NORTHEAST KANSAS

CITY           SKY/WX    TMP DP  RH WIND       PRES   REMARKS
CONCORDIA      CLOUDY    53  45  74 N16       29.48S
EMPORIA        CLOUDY    71  57  61 SW10      29.39S
LAWRENCE       CLOUDY    70  56  61 S7        29.40F
MANHATTAN      CLOUDY    68  54  60 NE6       29.40F
OLATHE IND     CLOUDY    71  55  56 S10       29.42S
OLATHE EXE     CLOUDY    70  56  61 S8        29.42R
SALINA         CLOUDY    64  52  64 N14       29.45R
TOPEKA BILLARD CLOUDY    70  55  59 S5        29.39F
TOPEKA FORBES  CLOUDY    71  56  58 SW6       29.40F
$$




USA.gov is the U.S. government's official web portal to all federal, state and local government web resources and services.